WILDWOOD, NJ current weather conditions

sailwx.info

Wind from 300 at 7 knots

Air temperature 6.0° C
Visibility: greater than 8.7 NM
Dewpoint -3.0° C

Last reported at 2019-Dec-06 00:10 UTC.
Time now 2019-Dec-06 00:40 UTC

Location: N 39°01' W 074°55'.
View on Google Maps.

See reports from other nearby stations

  
Tides and Currents Weather Stations Pressure Air Temp Water Temp Dewpoint Dewpoint Depression Visibility Wind Speed Wind Dir Waves Ship Positions
date/time (UTC)wind fromknots sea level pressurealtimeterstation pressurevisibilityair tempwater tempwave heightnotes
2019-Dec-06 00:10 300 7 8.7 6.0
2019-Dec-06 00:05 290 7 8.7 6.0
2019-Dec-06 00:00 290 8 8.7 6.0
2019-Dec-05 23:56 290 7 8.7 5.6
2019-Dec-05 23:55 290 8 8.7 6.0
2019-Dec-05 23:50 290 7 8.7 6.0
2019-Dec-05 23:45 290 10 8.7 6.0
2019-Dec-05 23:40 300 7 8.7 6.0
2019-Dec-05 23:35 290 8 8.7 6.0
2019-Dec-05 23:30 290 9 8.7 6.0
2019-Dec-05 23:25 300 9 gusting 15 8.7 6.0
2019-Dec-05 23:20 300 10 8.7 6.0
2019-Dec-05 23:15 300 10 8.7 6.0
2019-Dec-05 23:10 310 10 8.7 6.0
2019-Dec-05 23:05 300 9 8.7 6.0
2019-Dec-05 23:00 300 7 8.7 6.0
2019-Dec-05 22:56 300 11 gusting 20 8.7 6.1
2019-Dec-05 22:55 290 9 gusting 15 8.7 6.0
2019-Dec-05 22:50 300 11 8.7 6.0
2019-Dec-05 22:45 300 12 gusting 17 8.7 6.0
2019-Dec-05 22:40 290 11 gusting 18 8.7 6.0
2019-Dec-05 22:35 300 10 8.7 6.0
2019-Dec-05 22:30 290 13 8.7 6.0
2019-Dec-05 22:25 290 13 gusting 20 8.7 6.0
2019-Dec-05 22:20 290 12 8.7 6.0
2019-Dec-05 22:15 290 12 8.7 6.0
2019-Dec-05 22:10 290 13 gusting 18 8.7 6.0
2019-Dec-05 22:05 290 10 gusting 15 8.7 6.0
2019-Dec-05 22:00 290 12 gusting 17 8.7 6.0
2019-Dec-05 21:56 290 13 gusting 20 8.7 6.7
2019-Dec-05 21:55 290 13 8.7 7.0
2019-Dec-05 21:50 290 15 8.7 7.0
2019-Dec-05 21:45 300 13 gusting 20 8.7 7.0
2019-Dec-05 21:40 290 12 8.7 7.0
2019-Dec-05 21:35 290 9 8.7 7.0
2019-Dec-05 21:30 300 10 8.7 7.0
2019-Dec-05 21:25 290 9 8.7 7.0
2019-Dec-05 21:20 290 11 8.7 7.0
2019-Dec-05 21:15 290 12 8.7 7.0
2019-Dec-05 21:10 280 11 gusting 16 8.7 7.0
2019-Dec-05 21:05 290 10 gusting 16 8.7 7.0
2019-Dec-05 21:00 290 11 8.7 6.0
2019-Dec-05 20:56 280 13 8.7 6.1
2019-Dec-05 20:55 280 12 8.7 6.0
2019-Dec-05 20:50 280 11 8.7 6.0
2019-Dec-05 20:45 280 12 8.7 7.0
2019-Dec-05 20:40 270 12 8.7 7.0
2019-Dec-05 20:35 280 11 gusting 16 8.7 7.0
2019-Dec-05 20:30 280 13 8.7 7.0
2019-Dec-05 20:25 270 12 8.7 7.0
2019-Dec-05 20:20 280 13 8.7 7.0
2019-Dec-05 20:15 280 11 8.7 7.0
2019-Dec-05 20:10 280 12 8.7 7.0
2019-Dec-05 20:05 290 15 8.7 7.0
2019-Dec-05 20:00 280 12 8.7 7.0
2019-Dec-05 19:56 280 11 gusting 22 8.7 6.7
2019-Dec-05 19:55 280 12 8.7 7.0
2019-Dec-05 19:50 290 14 8.7 7.0
2019-Dec-05 19:45 290 15 gusting 20 8.7 7.0
2019-Dec-05 19:40 280 16 gusting 23 8.7 7.0
2019-Dec-05 19:35 290 14 gusting 20 8.7 7.0
2019-Dec-05 19:30 290 15 gusting 23 8.7 7.0
2019-Dec-05 19:25 290 13 8.7 7.0
2019-Dec-05 19:20 290 16 gusting 23 8.7 7.0
2019-Dec-05 19:15 290 17 8.7 7.0
2019-Dec-05 19:10 290 17 gusting 22 8.7 7.0
2019-Dec-05 19:05 290 14 8.7 7.0
2019-Dec-05 19:00 300 11 8.7 7.0
2019-Dec-05 18:56 290 15 gusting 25 8.7 6.7
2019-Dec-05 18:55 290 14 gusting 24 8.7 7.0
2019-Dec-05 18:50 300 13 8.7 7.0
2019-Dec-05 18:45 280 18 8.7 7.0
2019-Dec-05 18:40 280 15 8.7 7.0
2019-Dec-05 18:35 280 13 8.7 6.0
2019-Dec-05 18:30 290 12 8.7 6.0
2019-Dec-05 18:25 290 14 8.7 6.0
2019-Dec-05 18:20 280 12 8.7 6.0
2019-Dec-05 18:15 290 13 8.7 6.0
2019-Dec-05 18:10 300 14 8.7 6.0
2019-Dec-05 18:05 300 16 gusting 22 8.7 6.0
2019-Dec-05 18:00 290 11 8.7 6.0
2019-Dec-05 17:56 300 9 gusting 18 8.7 6.1
2019-Dec-05 17:55 300 10 gusting 16 8.7 6.0
2019-Dec-05 17:50 300 11 8.7 6.0
2019-Dec-05 17:45 300 9 8.7 6.0
2019-Dec-05 17:40 300 11 gusting 16 8.7 6.0
2019-Dec-05 17:35 310 13 8.7 6.0
2019-Dec-05 17:30 300 10 8.7 6.0
2019-Dec-05 17:25 300 9 8.7 6.0
2019-Dec-05 17:20 290 12 8.7 6.0
2019-Dec-05 17:15 290 15 gusting 22 8.7 6.0
2019-Dec-05 17:10 300 12 gusting 18 8.7 6.0
2019-Dec-05 17:05 300 10 8.7 6.0
2019-Dec-05 17:00 290 14 8.7 6.0
2019-Dec-05 16:56 300 11 gusting 19 8.7 5.6
2019-Dec-05 16:55 290 12 8.7 6.0
2019-Dec-05 16:50 290 13 gusting 19 8.7 6.0
2019-Dec-05 16:45 290 13 8.7 6.0
2019-Dec-05 16:40 290 11 8.7 6.0
2019-Dec-05 16:35 290 10 gusting 16 8.7 6.0
2019-Dec-05 16:30 280 14 8.7 6.0
2019-Dec-05 16:25 300 12 8.7 6.0
2019-Dec-05 16:20 290 10 8.7 6.0
2019-Dec-05 16:15 290 13 8.7 6.0
2019-Dec-05 16:10 290 11 gusting 18 8.7 6.0
2019-Dec-05 16:05 290 17 gusting 24 8.7 6.0
2019-Dec-05 16:00 290 15 gusting 23 8.7 7.0
2019-Dec-05 15:56 280 18 gusting 22 8.7 6.7
2019-Dec-05 15:55 280 15 gusting 20 8.7 7.0
2019-Dec-05 15:50 290 15 gusting 20 8.7 7.0
2019-Dec-05 15:45 300 12 8.7 6.0
2019-Dec-05 15:40 290 11 8.7 6.0
2019-Dec-05 15:35 290 14 8.7 6.0
2019-Dec-05 15:30 280 14 gusting 19 8.7 7.0
2019-Dec-05 15:25 290 14 8.7 7.0
2019-Dec-05 15:20 290 12 gusting 19 8.7 7.0
2019-Dec-05 15:15 280 12 gusting 17 8.7 6.0
2019-Dec-05 15:10 280 14 8.7 6.0
2019-Dec-05 15:05 290 11 8.7 6.0
2019-Dec-05 15:00 290 12 8.7 6.0
2019-Dec-05 14:56 290 13 gusting 20 8.7 6.1
2019-Dec-05 14:55 290 12 gusting 20 8.7 6.0
2019-Dec-05 14:50 290 11 8.7 6.0
2019-Dec-05 14:45 280 14 gusting 19 8.7 6.0
2019-Dec-05 14:40 290 11 8.7 6.0
2019-Dec-05 14:35 290 13 7.8 6.0
2019-Dec-05 14:30 280 13 gusting 20 7.8 6.0
2019-Dec-05 14:25 290 12 8.7 6.0
2019-Dec-05 14:20 280 13 gusting 19 8.7 6.0
2019-Dec-05 14:15 280 12 8.7 7.0
2019-Dec-05 14:10 290 15 gusting 20 8.7 7.0
2019-Dec-05 14:05 290 13 gusting 19 8.7 7.0
2019-Dec-05 14:00 280 16 8.7 6.0
2019-Dec-05 13:56 280 13 gusting 21 8.7 6.1
2019-Dec-05 13:55 280 14 8.7 6.0
2019-Dec-05 13:50 280 16 gusting 22 8.7 6.0
2019-Dec-05 13:45 290 16 8.7 6.0
2019-Dec-05 13:40 280 15 gusting 20 8.7 6.0
2019-Dec-05 13:35 290 12 gusting 17 8.7 6.0
2019-Dec-05 13:30 280 13 8.7 6.0
2019-Dec-05 13:25 290 15 8.7 6.0
2019-Dec-05 13:20 290 13 8.7 6.0
2019-Dec-05 13:15 280 16 8.7 6.0
2019-Dec-05 13:10 290 13 8.7 6.0
2019-Dec-05 13:05 290 12 8.7 6.0
2019-Dec-05 13:00 290 11 gusting 16 8.7 6.0
2019-Dec-05 12:56 290 13 gusting 20 8.7 5.6
2019-Dec-05 12:55 290 13 8.7 6.0
2019-Dec-05 12:50 280 12 8.7 6.0
2019-Dec-05 12:45 290 15 gusting 22 8.7 6.0
2019-Dec-05 12:40 290 12 8.7 6.0
2019-Dec-05 12:35 290 10 8.7 6.0
2019-Dec-05 12:30 290 14 gusting 19 8.7 6.0
2019-Dec-05 12:25 280 15 gusting 20 8.7 6.0
2019-Dec-05 12:20 290 13 8.7 6.0
2019-Dec-05 12:15 280 15 gusting 20 8.7 6.0
2019-Dec-05 12:10 290 13 gusting 20 8.7 6.0
2019-Dec-05 12:05 290 13 8.7 6.0
2019-Dec-05 12:00 280 13 8.7 6.0
2019-Dec-05 11:56 280 13 gusting 20 8.7 5.6
2019-Dec-05 11:55 280 12 8.7 6.0
2019-Dec-05 11:50 280 13 gusting 18 8.7 6.0
2019-Dec-05 11:45 280 12 gusting 17 8.7 6.0
2019-Dec-05 11:40 280 11 gusting 17 8.7 6.0
2019-Dec-05 11:35 280 11 8.7 6.0
2019-Dec-05 11:30 280 10 8.7 6.0
2019-Dec-05 11:25 280 15 8.7 6.0
2019-Dec-05 11:20 280 13 8.7 6.0
2019-Dec-05 11:15 280 12 8.7 6.0
2019-Dec-05 11:10 280 14 gusting 19 8.7 6.0
2019-Dec-05 11:05 280 15 gusting 20 8.7 6.0
2019-Dec-05 11:00 280 13 gusting 18 8.7 6.0
2019-Dec-05 10:56 280 13 gusting 19 8.7 5.6
2019-Dec-05 10:55 280 15 8.7 6.0
2019-Dec-05 10:50 280 14 8.7 6.0
2019-Dec-05 10:45 280 14 8.7 6.0
2019-Dec-05 10:40 280 12 gusting 19 8.7 6.0
2019-Dec-05 10:35 270 11 8.7 6.0
2019-Dec-05 10:30 270 12 8.7 6.0
2019-Dec-05 10:25 280 13 8.7 6.0
2019-Dec-05 10:20 280 12 8.7 6.0
2019-Dec-05 10:15 280 15 8.7 6.0
2019-Dec-05 10:10 280 11 gusting 18 8.7 6.0
2019-Dec-05 10:05 290 10 gusting 15 8.7 6.0
2019-Dec-05 10:00 280 11 8.7 6.0
2019-Dec-05 09:56 280 9 gusting 19 8.7 5.6
2019-Dec-05 09:55 280 9 8.7 6.0
2019-Dec-05 09:50 280 14 8.7 6.0
2019-Dec-05 09:45 290 10 8.7 6.0
2019-Dec-05 09:40 280 10 8.7 6.0
2019-Dec-05 09:35 280 12 8.7 6.0
2019-Dec-05 09:30 280 10 8.7 6.0
2019-Dec-05 09:25 280 10 8.7 6.0
2019-Dec-05 09:20 280 9 8.7 6.0
2019-Dec-05 09:15 280 11 8.7 6.0
2019-Dec-05 09:10 280 14 8.7 6.0
2019-Dec-05 09:05 280 11 gusting 16 8.7 6.0
2019-Dec-05 09:00 280 13 8.7 6.0
2019-Dec-05 08:56 280 12 8.7 5.6
2019-Dec-05 08:55 280 10 8.7 6.0
2019-Dec-05 08:50 280 9 8.7 5.0
2019-Dec-05 08:45 290 10 8.7 5.0
2019-Dec-05 08:40 280 12 8.7 5.0
2019-Dec-05 08:35 280 11 8.7 6.0
2019-Dec-05 08:30 290 14 8.7 5.0
2019-Dec-05 08:25 290 12 8.7 5.0
2019-Dec-05 08:20 280 11 8.7 5.0
2019-Dec-05 08:15 290 9 8.7 5.0
2019-Dec-05 08:10 280 9 8.7 5.0
2019-Dec-05 08:05 280 9 8.7 5.0
2019-Dec-05 08:00 290 9 8.7 5.0
2019-Dec-05 07:56 290 8 8.7 5.0
2019-Dec-05 07:55 290 9 8.7 6.0
2019-Dec-05 07:50 290 10 8.7 6.0
2019-Dec-05 07:45 280 10 8.7 6.0
2019-Dec-05 07:40 300 9 8.7 6.0
2019-Dec-05 07:35 290 13 8.7 6.0
2019-Dec-05 07:30 280 10 8.7 6.0
2019-Dec-05 07:25 290 10 8.7 6.0
2019-Dec-05 07:20 300 9 8.7 6.0
2019-Dec-05 07:15 280 10 gusting 15 8.7 5.0
2019-Dec-05 07:10 280 9 8.7 5.0
2019-Dec-05 07:05 280 7 8.7 5.0
2019-Dec-05 07:00 280 9 8.7 5.0
2019-Dec-05 06:56 280 6 8.7 5.0
2019-Dec-05 06:55 280 6 8.7 5.0
2019-Dec-05 06:50 280 7 8.7 5.0
2019-Dec-05 06:45 280 10 8.7 5.0
2019-Dec-05 06:40 280 9 8.7 5.0
2019-Dec-05 06:35 280 7 8.7 5.0
2019-Dec-05 06:30 270 8 8.7 5.0
2019-Dec-05 06:25 280 8 8.7 5.0
2019-Dec-05 06:20 280 8 8.7 5.0
2019-Dec-05 06:15 280 10 8.7 5.0
2019-Dec-05 06:10 280 8 8.7 5.0
2019-Dec-05 06:05 290 7 8.7 5.0
2019-Dec-05 06:00 280 9 8.7 6.0
2019-Dec-05 05:56 290 7 8.7 5.0
2019-Dec-05 05:55 290 8 8.7 5.0
2019-Dec-05 05:50 280 7 8.7 6.0
2019-Dec-05 05:45 280 8 8.7 5.0
2019-Dec-05 05:40 280 10 8.7 5.0
2019-Dec-05 05:35 280 9 8.7 5.0
2019-Dec-05 05:30 280 10 8.7 5.0
2019-Dec-05 05:25 270 9 8.7 5.0
2019-Dec-05 05:20 260 6 8.7 5.0
2019-Dec-05 05:15 260 6 8.7 4.0
2019-Dec-05 05:10 260 6 8.7 4.0
2019-Dec-05 05:05 250 5 8.7 3.0
2019-Dec-05 05:00 240 5 8.7 2.0
2019-Dec-05 04:56 240 4 8.7 2.2
2019-Dec-05 04:55 250 4 8.7 2.0
2019-Dec-05 04:50 240 4 8.7 2.0
2019-Dec-05 04:45 7.0 2.0
2019-Dec-05 04:40 4.3 2.0 Mist.
2019-Dec-05 04:35 3.5 2.0 Mist.
2019-Dec-05 04:30 3.5 2.0 Mist.
2019-Dec-05 04:25 4.3 2.0 Mist.
2019-Dec-05 04:20 6.1 2.0
2019-Dec-05 04:15 6.1 3.0
2019-Dec-05 04:10 250 3 7.0 3.0
2019-Dec-05 04:05 7.8 3.0
2019-Dec-05 04:00 8.7 3.0
2019-Dec-05 03:56 7.8 2.8
2019-Dec-05 03:55 7.8 3.0
2019-Dec-05 03:50 250 3 7.0 3.0
2019-Dec-05 03:45 240 4 7.8 3.0
2019-Dec-05 03:40 240 3 8.7 4.0
2019-Dec-05 03:35 260 3 8.7 4.0
2019-Dec-05 03:30 8.7 4.0
2019-Dec-05 03:25 8.7 4.0
2019-Dec-05 03:20 8.7 4.0
2019-Dec-05 03:15 330 3 8.7 4.0
2019-Dec-05 03:10 340 3 8.7 4.0
2019-Dec-05 03:05 340 4 8.7 4.0
2019-Dec-05 03:00 330 5 8.7 4.0
2019-Dec-05 02:56 340 5 8.7 4.4
2019-Dec-05 02:55 340 5 8.7 4.0 Light rain.
2019-Dec-05 02:54 340 5 8.7 4.0 Light rain.
2019-Dec-05 02:50 340 6 8.7 4.0 Light rain.
2019-Dec-05 02:45 340 7 8.7 5.0 Light rain.
2019-Dec-05 02:40 320 6 8.7 5.0 Light rain.
2019-Dec-05 02:35 310 10 8.7 5.0 Light rain.
2019-Dec-05 02:30 300 5 8.7 5.0 Light rain.
2019-Dec-05 02:25 300 6 8.7 5.0 Light rain.
2019-Dec-05 02:20 280 8 8.7 4.0 Light rain.
2019-Dec-05 02:15 8.7 4.0 Light rain.
2019-Dec-05 02:11 8.7 4.0 Light rain.
2019-Dec-05 02:10 8.7 4.0 Light rain.
2019-Dec-05 02:05 8.7 4.0 Light rain.
2019-Dec-05 02:00 7.8 4.0 Light rain.
2019-Dec-05 01:56 290 2 6.9 4.4 Rain.
2019-Dec-05 01:55 300 3 7.0 4.0 Rain.
2019-Dec-05 01:50 330 3 7.8 4.0 Rain.
2019-Dec-05 01:45 330 3 8.7 4.0 Light rain.
2019-Dec-05 01:40 330 3 8.7 4.0 Light rain.
2019-Dec-05 01:35 8.7 4.0
2019-Dec-05 01:30 8.7 4.0
2019-Dec-05 01:27 8.7 4.0
2019-Dec-05 01:25 8.7 4.0
2019-Dec-05 01:20 350 4 8.7 4.0 Light rain.
2019-Dec-05 01:15 360 4 8.7 4.0 Light rain.
2019-Dec-05 01:10 8.7 4.0 Light rain.
2019-Dec-05 01:05 330 4 8.7 4.0 Light rain.
2019-Dec-05 01:00 350 4 8.7 4.0 Light rain.
2019-Dec-05 00:56 350 6 8.7 5.0 Light rain.
2019-Dec-05 00:55 340 6 8.7 5.0 Light rain.
2019-Dec-05 00:50 300 4 8.7 5.0 Light rain.
2019-Dec-05 00:46 290 5 7.8 5.0 Light rain.
2019-Dec-05 00:45 300 4 7.8 5.0 Light rain.
2019-Dec-05 00:40 250 4 7.0 5.0 Rain.
2019-Dec-05 00:35 7.8 5.0 Rain.
2019-Dec-05 00:30 320 3 8.7 5.0 Light rain.
2019-Dec-05 00:25 8.7 5.0 Light rain.
2019-Dec-05 00:20 350 3 8.7 5.0 Light rain.
2019-Dec-05 00:15 360 4 8.7 5.0 Light rain.
2019-Dec-05 00:10 020 3 8.7 5.0
2019-Dec-05 00:05 020 3 8.7 6.0
2019-Dec-05 00:00 8.7 6.0
2019-Dec-04 23:56 8.7 5.6
2019-Dec-04 23:55 8.7 6.0
2019-Dec-04 23:50 8.7 6.0
2019-Dec-04 23:45 8.7 6.0 Light rain.
2019-Dec-04 23:40 8.7 6.0 Light rain.
2019-Dec-04 23:35 8.7 6.0 Light rain.
2019-Dec-04 23:30 8.7 6.0 Light rain.
2019-Dec-04 23:25 8.7 6.0 Light rain.
2019-Dec-04 23:20 8.7 6.0 Light rain.
2019-Dec-04 23:15 8.7 6.0 Light rain.
2019-Dec-04 23:10 8.7 6.0 Light rain.
2019-Dec-04 23:05 8.7 6.0 Light rain.
2019-Dec-04 23:00 330 3 8.7 6.0 Light rain.
2019-Dec-04 22:56 320 4 8.7 6.1 Light rain.
2019-Dec-04 22:55 320 3 8.7 6.0 Light rain.
2019-Dec-04 22:50 320 3 8.7 6.0 Light rain.
2019-Dec-04 22:45 8.7 7.0 Light rain.
2019-Dec-04 22:40 8.7 7.0 Light rain.
2019-Dec-04 22:35 310 3 8.7 7.0 Light rain.
2019-Dec-04 22:30 300 3 8.7 7.0
2019-Dec-04 22:25 300 3 8.7 7.0
2019-Dec-04 22:20 300 3 8.7 7.0
2019-Dec-04 22:15 290 3 8.7 7.0
2019-Dec-04 22:10 280 4 8.7 7.0
2019-Dec-04 22:05 270 4 8.7 7.0
2019-Dec-04 22:00 280 3 8.7 7.0
2019-Dec-04 21:56 270 5 8.7 7.2
2019-Dec-04 21:55 260 6 8.7 7.0
2019-Dec-04 21:50 280 5 8.7 7.0
2019-Dec-04 21:45 270 4 8.7 7.0
2019-Dec-04 21:40 270 6 8.7 7.0
2019-Dec-04 21:35 270 5 8.7 7.0 Light rain.
2019-Dec-04 21:30 250 8 8.7 7.0 Light rain.
2019-Dec-04 21:25 270 7 8.7 7.0 Light rain.
2019-Dec-04 21:20 270 5 8.7 7.0 Light rain.
2019-Dec-04 21:15 260 5 8.7 7.0
2019-Dec-04 21:10 270 4 8.7 7.0
2019-Dec-04 21:05 260 4 8.7 7.0
2019-Dec-04 21:00 270 5 8.7 7.0
2019-Dec-04 20:56 270 4 8.7 7.2
2019-Dec-04 20:55 270 5 8.7 7.0
2019-Dec-04 20:50 260 4 8.7 7.0
2019-Dec-04 20:45 270 4 8.7 7.0
2019-Dec-04 20:40 250 5 8.7 7.0
2019-Dec-04 20:35 250 5 8.7 7.0
2019-Dec-04 20:30 260 6 8.7 7.0
2019-Dec-04 20:25 250 5 8.7 7.0
2019-Dec-04 20:20 250 7 8.7 7.0
2019-Dec-04 20:15 260 5 8.7 7.0
2019-Dec-04 20:10 250 7 8.7 7.0
2019-Dec-04 20:05 240 7 8.7 7.0
2019-Dec-04 20:00 280 4 8.7 7.0
2019-Dec-04 19:56 290 6 8.7 7.2
2019-Dec-04 19:55 280 7 8.7 7.0
2019-Dec-04 19:50 290 6 8.7 7.0
2019-Dec-04 19:45 290 6 8.7 7.0
2019-Dec-04 19:40 280 5 8.7 8.0
2019-Dec-04 19:35 260 6 8.7 7.0
2019-Dec-04 19:30 260 7 8.7 7.0
2019-Dec-04 19:25 250 6 8.7 7.0
2019-Dec-04 19:20 290 6 8.7 7.0
2019-Dec-04 19:15 300 5 8.7 7.0
2019-Dec-04 19:10 310 7 8.7 7.0
2019-Dec-04 19:05 290 6 8.7 7.0
2019-Dec-04 19:00 300 6 8.7 7.0
2019-Dec-04 18:56 290 6 8.7 7.2
2019-Dec-04 18:55 280 5 8.7 7.0
2019-Dec-04 18:50 290 8 8.7 7.0
2019-Dec-04 18:45 300 6 8.7 7.0
2019-Dec-04 18:40 290 7 8.7 7.0
2019-Dec-04 18:35 280 7 8.7 7.0
2019-Dec-04 18:30 270 8 8.7 7.0
2019-Dec-04 18:25 250 4 8.7 7.0
2019-Dec-04 18:20 270 5 8.7 7.0
2019-Dec-04 18:15 290 7 8.7 7.0
2019-Dec-04 18:10 250 7 8.7 7.0
2019-Dec-04 18:05 250 8 8.7 7.0
2019-Dec-04 18:00 270 8 8.7 7.0
2019-Dec-04 17:56 260 8 8.7 7.2
2019-Dec-04 17:55 250 8 8.7 7.0
2019-Dec-04 17:50 280 6 8.7 7.0
2019-Dec-04 17:45 290 7 8.7 7.0
2019-Dec-04 17:40 290 7 8.7 7.0
2019-Dec-04 17:35 260 7 8.7 7.0
2019-Dec-04 17:30 260 8 8.7 7.0
2019-Dec-04 17:25 290 5 8.7 7.0
2019-Dec-04 17:20 290 8 8.7 7.0
2019-Dec-04 17:15 260 7 8.7 7.0
2019-Dec-04 17:10 300 6 8.7 6.0
2019-Dec-04 17:05 280 10 8.7 7.0
2019-Dec-04 17:00 270 8 8.7 7.0
2019-Dec-04 16:56 290 6 8.7 6.1
2019-Dec-04 16:55 300 8 8.7 6.0
2019-Dec-04 16:50 290 10 8.7 6.0
2019-Dec-04 16:45 270 11 8.7 6.0
2019-Dec-04 16:40 280 11 8.7 6.0
2019-Dec-04 16:35 260 9 8.7 6.0
2019-Dec-04 16:30 280 9 8.7 6.0
2019-Dec-04 16:25 300 7 8.7 6.0
2019-Dec-04 16:20 280 11 8.7 6.0
2019-Dec-04 16:15 280 9 8.7 6.0
2019-Dec-04 16:10 260 9 8.7 7.0
2019-Dec-04 16:05 290 10 8.7 6.0
2019-Dec-04 16:00 280 8 8.7 6.0
2019-Dec-04 15:56 280 9 8.7 6.1
2019-Dec-04 15:55 280 9 8.7 6.0
2019-Dec-04 15:50 280 9 8.7 6.0
2019-Dec-04 15:45 280 8 8.7 6.0
2019-Dec-04 15:40 290 4 8.7 6.0
2019-Dec-04 15:35 270 7 8.7 5.0
2019-Dec-04 15:30 300 9 8.7 6.0
2019-Dec-04 15:25 260 7 8.7 6.0
2019-Dec-04 15:20 280 8 8.7 6.0
2019-Dec-04 15:15 300 5 8.7 5.0
2019-Dec-04 15:10 290 7 8.7 6.0
2019-Dec-04 15:05 280 7 8.7 5.0
2019-Dec-04 15:00 280 9 8.7 6.0
2019-Dec-04 14:56 280 5 8.7 5.6
2019-Dec-04 14:55 270 5 8.7 6.0
2019-Dec-04 14:50 280 6 8.7 4.0
2019-Dec-04 14:45 290 5 8.7 5.0
2019-Dec-04 14:40 290 6 8.7 5.0
2019-Dec-04 14:35 280 5 8.7 5.0
2019-Dec-04 14:34 280 6 8.7 5.0
2019-Dec-04 14:30 270 6 8.7 5.0
2019-Dec-04 14:25 280 7 8.7 4.0
2019-Dec-04 14:20 290 6 8.7 4.0 Light rain.
2019-Dec-04 14:15 290 6 8.7 4.0 Light rain.
2019-Dec-04 14:10 280 8 8.7 4.0
2019-Dec-04 14:05 300 8 8.7 4.0
2019-Dec-04 14:00 290 7 8.7 4.0
2019-Dec-04 13:56 280 7 8.7 4.4
2019-Dec-04 13:55 280 7 8.7 4.0 Light rain.
2019-Dec-04 13:50 270 5 8.7 4.0 Light rain.
2019-Dec-04 13:45 300 6 8.7 4.0 Light rain.
2019-Dec-04 13:40 280 6 8.7 4.0 Light rain.
2019-Dec-04 13:35 290 6 8.7 4.0
2019-Dec-04 13:30 290 4 8.7 4.0
2019-Dec-04 13:25 300 5 8.7 4.0
2019-Dec-04 13:20 280 5 8.7 4.0
2019-Dec-04 13:15 290 5 8.7 4.0
2019-Dec-04 13:10 280 5 8.7 4.0
2019-Dec-04 13:05 270 5 8.7 4.0
2019-Dec-04 13:00 280 6 8.7 4.0
2019-Dec-04 12:56 280 5 8.7 4.4
2019-Dec-04 12:55 280 6 8.7 4.0
2019-Dec-04 12:50 260 6 8.7 4.0
2019-Dec-04 12:45 260 5 8.7 4.0
2019-Dec-04 12:40 270 5 8.7 4.0
2019-Dec-04 12:35 270 7 8.7 4.0
2019-Dec-04 12:30 270 6 8.7 4.0
2019-Dec-04 12:25 280 7 8.7 4.0
2019-Dec-04 12:20 280 5 8.7 4.0
2019-Dec-04 12:15 270 5 8.7 4.0
2019-Dec-04 12:10 270 5 8.7 4.0
2019-Dec-04 12:05 280 6 8.7 4.0
2019-Dec-04 12:00 280 5 8.7 4.0
2019-Dec-04 11:56 280 6 8.7 3.9
2019-Dec-04 11:55 280 7 8.7 4.0
2019-Dec-04 11:50 280 6 8.7 4.0
2019-Dec-04 11:45 290 6 8.7 4.0
2019-Dec-04 11:40 290 6 8.7 4.0
2019-Dec-04 11:35 290 8 8.7 4.0
2019-Dec-04 11:30 280 7 8.7 4.0
2019-Dec-04 11:25 280 6 8.7 4.0
2019-Dec-04 11:20 290 6 8.7 4.0
2019-Dec-04 11:15 280 7 8.7 4.0
2019-Dec-04 11:10 280 6 8.7 4.0
2019-Dec-04 11:05 280 7 8.7 4.0
2019-Dec-04 11:00 270 3 8.7 4.0
2019-Dec-04 10:56 280 2 8.7 3.3
2019-Dec-04 10:55 280 3 8.7 3.0
2019-Dec-04 10:50 270 3 8.7 3.0
2019-Dec-04 10:45 240 3 8.7 3.0
2019-Dec-04 10:40 8.7 3.0
2019-Dec-04 10:35 8.7 2.0
2019-Dec-04 10:30 8.7 2.0
2019-Dec-04 10:25 8.7 2.0
2019-Dec-04 10:20 8.7 2.0
2019-Dec-04 10:15 8.7 2.0
2019-Dec-04 10:10 8.7 2.0
2019-Dec-04 10:05 8.7 2.0
2019-Dec-04 10:00 8.7 2.0
2019-Dec-04 09:56 8.7 2.2
2019-Dec-04 09:55 8.7 2.0
2019-Dec-04 09:50 8.7 2.0
2019-Dec-04 09:45 8.7 2.0
2019-Dec-04 09:40 8.7 2.0
2019-Dec-04 09:35 8.7 3.0
2019-Dec-04 09:30 8.7 3.0
2019-Dec-04 09:25 8.7 3.0
2019-Dec-04 09:20 8.7 3.0
2019-Dec-04 09:15 8.7 4.0
2019-Dec-04 09:10 250 4 8.7 4.0
2019-Dec-04 09:05 260 3 8.7 3.0
2019-Dec-04 09:00 280 4 8.7 3.0
2019-Dec-04 08:56 280 2 8.7 3.3
2019-Dec-04 08:55 280 3 8.7 3.0
2019-Dec-04 08:50 260 3 8.7 3.0
2019-Dec-04 08:45 270 3 8.7 3.0
2019-Dec-04 08:40 8.7 3.0
2019-Dec-04 08:35 270 3 8.7 3.0
2019-Dec-04 08:30 270 3 8.7 3.0
2019-Dec-04 08:25 290 3 8.7 3.0
2019-Dec-04 08:20 8.7 3.0
2019-Dec-04 08:15 8.7 3.0
2019-Dec-04 08:10 270 4 8.7 3.0
2019-Dec-04 08:05 270 4 8.7 4.0
2019-Dec-04 08:00 300 3 8.7 4.0
2019-Dec-04 07:56 290 4 8.7 3.9
2019-Dec-04 07:55 280 4 8.7 4.0
2019-Dec-04 07:50 320 3 8.7 4.0
2019-Dec-04 07:45 8.7 4.0
2019-Dec-04 07:40 8.7 4.0
2019-Dec-04 07:35 300 3 8.7 4.0
2019-Dec-04 07:30 290 3 8.7 4.0
2019-Dec-04 07:25 280 3 8.7 4.0
2019-Dec-04 07:20 290 3 8.7 4.0
2019-Dec-04 07:15 300 3 8.7 3.0
2019-Dec-04 07:10 8.7 3.0
2019-Dec-04 07:05 8.7 4.0
2019-Dec-04 07:00 320 4 8.7 3.0
2019-Dec-04 06:56 320 2 8.7 3.3
2019-Dec-04 06:55 330 3 8.7 3.0
2019-Dec-04 06:50 350 3 8.7 3.0
2019-Dec-04 06:45 310 3 8.7 3.0
2019-Dec-04 06:40 8.7 3.0
2019-Dec-04 06:35 330 3 8.7 4.0
2019-Dec-04 06:30 320 4 8.7 4.0
2019-Dec-04 06:25 310 5 8.7 4.0
2019-Dec-04 06:20 320 5 8.7 4.0
2019-Dec-04 06:15 300 4 8.7 4.0
2019-Dec-04 06:10 300 5 8.7 4.0
2019-Dec-04 06:05 310 4 8.7 4.0
2019-Dec-04 06:00 310 4 8.7 4.0
2019-Dec-04 05:56 310 5 8.7 3.9
2019-Dec-04 05:55 300 5 8.7 4.0
2019-Dec-04 05:50 300 6 8.7 4.0
2019-Dec-04 05:45 300 8 8.7 4.0
2019-Dec-04 05:40 300 8 8.7 4.0
2019-Dec-04 05:35 300 9 8.7 4.0
2019-Dec-04 05:30 300 6 8.7 4.0
2019-Dec-04 05:25 310 7 8.7 4.0
2019-Dec-04 05:20 310 7 8.7 4.0
2019-Dec-04 05:15 300 6 8.7 4.0
2019-Dec-04 05:10 310 5 8.7 4.0
2019-Dec-04 05:05 300 6 8.7 4.0
2019-Dec-04 05:00 300 6 8.7 3.0
2019-Dec-04 04:56 310 5 8.7 3.3
2019-Dec-04 04:55 320 5 8.7 3.0
2019-Dec-04 04:50 310 5 8.7 4.0
2019-Dec-04 04:45 310 7 8.7 4.0
2019-Dec-04 04:40 310 8 8.7 4.0
2019-Dec-04 04:35 310 6 8.7 4.0
2019-Dec-04 04:30 320 9 8.7 4.0
2019-Dec-04 04:25 300 8 8.7 4.0
2019-Dec-04 04:20 300 7 8.7 4.0
2019-Dec-04 04:15 300 5 8.7 4.0
2019-Dec-04 04:10 300 6 8.7 4.0
2019-Dec-04 04:05 290 6 8.7 4.0
2019-Dec-04 04:00 290 7 8.7 4.0
2019-Dec-04 03:56 290 6 8.7 3.9
2019-Dec-04 03:55 290 6 8.7 4.0
2019-Dec-04 03:50 300 7 8.7 4.0
2019-Dec-04 03:45 310 6 8.7 4.0
2019-Dec-04 03:40 310 5 8.7 4.0
2019-Dec-04 03:35 300 5 8.7 4.0
2019-Dec-04 03:30 320 6 8.7 4.0
2019-Dec-04 03:25 300 6 8.7 4.0
2019-Dec-04 03:20 300 7 8.7 4.0
2019-Dec-04 03:15 310 7 8.7 4.0
2019-Dec-04 03:10 290 8 8.7 4.0
2019-Dec-04 03:05 300 7 8.7 4.0
2019-Dec-04 03:00 310 5 8.7 4.0
2019-Dec-04 02:56 310 2 8.7 3.9
2019-Dec-04 02:55 310 4 8.7 4.0
2019-Dec-04 02:50 300 8 8.7 4.0
2019-Dec-04 02:45 310 7 8.7 4.0
2019-Dec-04 02:40 310 8 8.7 4.0
2019-Dec-04 02:35 300 9 8.7 4.0
2019-Dec-04 02:30 300 7 8.7 4.0
2019-Dec-04 02:25 310 9 8.7 4.0
2019-Dec-04 02:20 310 7 8.7 4.0
2019-Dec-04 02:15 300 10 8.7 4.0
2019-Dec-04 02:10 300 9 8.7 4.0
2019-Dec-04 02:05 290 9 8.7 4.0
2019-Dec-04 02:00 300 8 8.7 4.0
2019-Dec-04 01:56 300 9 gusting 13 8.7 4.4
2019-Dec-04 01:55 300 11 8.7 4.0
2019-Dec-04 01:50 290 9 8.7 4.0
2019-Dec-04 01:45 310 8 8.7 4.0
2019-Dec-04 01:40 300 8 8.7 4.0
2019-Dec-04 01:35 310 7 8.7 4.0
2019-Dec-04 01:30 310 7 8.7 4.0
2019-Dec-04 01:25 320 8 8.7 4.0
2019-Dec-04 01:20 310 8 8.7 4.0
2019-Dec-04 01:15 320 5 8.7 4.0
2019-Dec-04 01:10 320 5 8.7 4.0
2019-Dec-04 01:05 320 5 8.7 4.0
2019-Dec-04 01:00 320 5 8.7 4.0
2019-Dec-04 00:56 320 6 8.7 4.4
2019-Dec-04 00:55 320 6 8.7 4.0
2019-Dec-04 00:50 320 6 8.7 4.0
2019-Dec-04 00:45 320 6 8.7 4.0
2019-Dec-04 00:40 310 5 8.7 5.0
2019-Dec-04 00:35 320 8 8.7 5.0
2019-Dec-04 00:30 310 5 8.7 5.0
2019-Dec-04 00:25 320 6 8.7 5.0
2019-Dec-04 00:20 310 8 8.7 5.0
2019-Dec-04 00:15 300 7 8.7 5.0
2019-Dec-04 00:10 310 7 8.7 5.0
2019-Dec-04 00:05 310 8 8.7 5.0
2019-Dec-04 00:00 310 7 8.7 5.0